Weather History for Eau Claire, WI

Change the Weather History Date:

Thursday, December 18, 2014

  Actual Average Record
Temperature  
Mean Temperature 22 °F 18 °F  
Max Temperature 24 °F 26 °F 50 °F (2002)
Min Temperature 19 °F 10 °F -27 °F (1983)
Degree Days  
Heating Degree Days 43 47  
Month to date heating degree days 717 797  
Since 1 July heating degree days 2689 2543  
Cooling Degree Days 0 0  
Month to date cooling degree days 0 0  
Year to date cooling degree days 500 579  
Moisture  
Dew Point 17 °F    
Average Humidity 83    
Maximum Humidity 92    
Minimum Humidity 73    
Precipitation  
Precipitation T in 0.03 in 0.30 in (1896)
Month to date precipitation 0.10 0.64  
Year to date precipitation 42.40 30.62  
Snow  
Snow T in 0.30 in 3.00 in (1896)
Month to date snowfall 0.5 5.5  
Since 1 July snowfall 14.7 11.8  
Snow Depth T in    
Sea Level Pressure  
Sea Level Pressure 30.32 in    
Wind  
Wind Speed 2 mph (East)    
Max Wind Speed 8 mph    
Max Gust Speed 9 mph    
Visibility 10 miles    
Events      
T = Trace of Precipitation, MM = Missing Value Source: NWS Daily Summary

Daily Weather History Graph

Daily Weather History Graph

Search for Another Location

Airport:

Trip Planner

Search our weather history database for the weather conditions in past years. The results will help you decide how hot, cold, wet, or windy it might be!

Date:

Astronomy

Dec. 18, 2014 Rise Set
Actual Time 7:38 AM CST 4:26 PM CST
Civil Twilight 7:05 AM CST 5:00 PM CST
Nautical Twilight 6:27 AM CST 5:37 PM CST
Astronomical Twilight 5:52 AM CST 6:12 PM CST
Moon 3:45 AM CST (12/18) 2:13 PM CST (12/18)
Length of Visible Light 9h 54m
Length of Day
8h 47m
Waning Crescent, 13% of the Moon is Illuminated
Dec 18
Waning Crescent
Dec 21
New
Dec 28
First Quarter
Jan 4
Full
Jan 13
Last Quarter

Hourly Weather History & Observations

Time (CST) Temp. Windchill Dew Point Humidity Pressure Visibility Wind Dir Wind Speed Gust Speed Precip Events Conditions
12:56 AM 19.9 °F - 14.0 °F 78% 30.36 in 10.0 mi Calm Calm - N/A   Overcast
1:56 AM 19.9 °F - 14.0 °F 78% 30.35 in 10.0 mi Calm Calm - N/A   Overcast
2:56 AM 21.0 °F - 16.0 °F 81% 30.35 in 10.0 mi Calm Calm - N/A   Overcast
3:31 AM 21.0 °F 16.2 °F 16.0 °F 81% 30.30 in 10.0 mi West 3.5 mph - N/A   Overcast
3:56 AM 21.0 °F 16.2 °F 16.0 °F 81% 30.35 in 10.0 mi WNW 3.5 mph - N/A   Overcast
4:21 AM 21.0 °F - 17.1 °F 85% 30.30 in 10.0 mi Calm Calm - N/A   Overcast
4:39 AM 21.0 °F - 17.1 °F 85% 30.30 in 10.0 mi Calm Calm - N/A   Overcast
4:56 AM 21.0 °F - 17.1 °F 85% 30.35 in 10.0 mi Calm Calm - N/A   Overcast
5:11 AM 21.0 °F - 17.1 °F 85% 30.29 in 10.0 mi Calm Calm - N/A   Overcast
5:43 AM 21.9 °F 17.2 °F 18.0 °F 85% 30.28 in 10.0 mi NNE 3.5 mph - N/A   Overcast
5:56 AM 21.9 °F 17.2 °F 18.0 °F 85% 30.32 in 10.0 mi NE 3.5 mph - N/A   Overcast
6:42 AM 21.9 °F 14.5 °F 18.0 °F 85% 30.27 in 10.0 mi NE 5.8 mph - N/A   Overcast
6:56 AM 21.9 °F 17.2 °F 18.0 °F 85% 30.32 in 10.0 mi NE 3.5 mph - N/A   Overcast
7:56 AM 21.9 °F - 19.0 °F 89% 30.34 in 10.0 mi Calm Calm - N/A   Overcast
8:56 AM 23.0 °F - 18.0 °F 81% 30.34 in 10.0 mi Calm Calm - N/A   Overcast
9:56 AM 23.0 °F 17.0 °F 17.1 °F 78% 30.35 in 10.0 mi ESE 4.6 mph - N/A   Overcast
10:56 AM 23.0 °F - 18.0 °F 81% 30.35 in 10.0 mi Calm Calm - N/A   Overcast
11:56 AM 23.0 °F 18.4 °F 18.0 °F 81% 30.33 in 10.0 mi South 3.5 mph - N/A   Overcast
12:56 PM 24.1 °F - 18.0 °F 77% 30.31 in 10.0 mi Calm Calm - N/A   Overcast
1:56 PM 23.0 °F 18.4 °F 18.0 °F 81% 30.30 in 10.0 mi SSW 3.5 mph - N/A   Overcast
2:56 PM 24.1 °F - 18.0 °F 77% 30.30 in 10.0 mi Calm Calm - N/A   Overcast
3:56 PM 24.1 °F 19.7 °F 18.0 °F 77% 30.30 in 10.0 mi NNE 3.5 mph - N/A   Overcast
4:56 PM 24.1 °F - 18.0 °F 77% 30.31 in 10.0 mi Calm Calm - N/A   Overcast
5:56 PM 24.1 °F - 18.0 °F 77% 30.31 in 10.0 mi Calm Calm - N/A   Overcast
6:56 PM 24.1 °F - 18.0 °F 77% 30.32 in 10.0 mi Calm Calm - N/A   Overcast
7:56 PM 23.0 °F 17.0 °F 18.0 °F 81% 30.31 in 10.0 mi SSE 4.6 mph - N/A   Overcast
8:56 PM 24.1 °F 19.7 °F 18.0 °F 77% 30.30 in 10.0 mi Variable 3.5 mph - N/A   Overcast
9:56 PM 24.1 °F 18.2 °F 18.0 °F 77% 30.31 in 10.0 mi SSE 4.6 mph - N/A   Overcast
10:56 PM 24.1 °F 19.7 °F 19.0 °F 81% 30.32 in 10.0 mi ESE 3.5 mph - N/A   Overcast
11:56 PM 24.1 °F - 19.0 °F 81% 30.32 in 10.0 mi Calm Calm - N/A   Overcast